This demonstration page uses our WeatherBlox Daily Observations layout. Learn more.

Left ArrowRight Arrow

36.17497, -115.13722

Hourly Observations for July 22, 2020

Temp ( °F °C ) Dew Point ( °F °C ) Humidity (%) Winds ( mph kmh ) Pressure ( in mb ) Visibility ( mi km ) Precip ( " mm )
12:53 am 00:53 Clear 92 33.3 45 7.2 20 20 SSW 3 6 29.71 1006 10 16 0.00 0.00
1:53 am 01:53 Clear 91 32.8 44 6.7 20 20 SSW 3 6 29.71 1006 10 16 0.00 0.00
2:53 am 02:53 Clear 89 31.7 44 6.7 21 21 Calm 29.72 1006 10 16 0.00 0.00
3:53 am 03:53 Clear 89 31.7 44 6.7 21 21 Calm 29.72 1006 10 16 0.00 0.00
4:53 am 04:53 Clear 86 30 44 6.7 23 23 Calm 29.74 1007 10 16 0.00 0.00
5:53 am 05:53 Sunny 83 28.3 45 7.2 26 26 Calm 29.75 1008 10 16 0.00 0.00
6:53 am 06:53 Sunny 87 30.6 42 5.6 21 21 ESE 5 7 29.77 1008 10 16 0.00 0.00
7:53 am 07:53 Sunny 90 32.2 41 5 18 18 Calm 29.79 1009 10 16 0.00 0.00
8:53 am 08:53 Sunny 93 33.9 43 6.1 18 18 SE 10 17 29.80 1009 10 16 0.00 0.00
9:53 am 09:53 Sunny 96 35.6 47 8.3 19 19 SSE 13 20 29.79 1009 10 16 0.00 0.00
10:53 am 10:53 Sunny 98 36.7 47 8.3 17 17 SE 15 24 29.78 1009 10 16 0.00 0.00
11:53 am 11:53 Sunny 102 38.9 45 7.2 14 14 SSE 13 20 29.76 1008 10 16 0.00 0.00
12:11 pm 12:11 Sunny 104 40 29 -1.7 7 7 SSE 22 35 29.58 1002 10 16 0.00 0.00
12:53 pm 12:53 Sunny 104 40 31 -0.6 8 8 SSE 10 17 29.74 1007 10 16 0.00 0.00
1:53 pm 13:53 Sunny 105 40.6 30 -1.1 7 7 SSE 21 33 29.71 1006 10 16 0.00 0.00
2:53 pm 14:53 Sunny 106 41.1 34 1.1 8 8 S 23 37 29.69 1005 10 16 0.00 0.00
3:53 pm 15:53 Sunny 106 41.1 36 2.2 9 9 S 23 37 29.66 1005 10 16 0.00 0.00
4:53 pm 16:53 Sunny 107 41.7 35 1.7 8 8 SW 13 20 29.66 1004 10 16 0.00 0.00
5:53 pm 17:53 Sunny 104 40 34 1.1 9 9 SW 18 30 29.65 1004 10 16 0.00 0.00
6:53 pm 18:53 Sunny 103 39.4 37 2.8 10 10 SW 12 19 29.65 1004 10 16 0.00 0.00
7:53 pm 19:53 Sunny 101 38.3 43 6.1 14 14 S 14 22 29.65 1004 10 16 0.00 0.00
8:53 pm 20:53 Clear 99 37.2 39 3.9 12 12 S 14 22 29.67 1005 10 16 0.00 0.00
9:53 pm 21:53 Clear 98 36.7 35 1.7 11 11 S 13 20 29.68 1005 10 16 0.00 0.00
10:53 pm 22:53 Clear 96 35.6 25 -3.9 8 8 S 14 22 29.70 1006 10 16 0.00 0.00
11:53 pm 23:53 Clear 93 33.9 18 -7.8 6 6 S 12 19 29.72 1007 10 16 0.00 0.00

Powered by AerisWeather